^^
Station Historical Data
Daily Summary for July 25, 2021 Units:  English    Metric   Both
Daily Weekly Monthly Yearly
  High: Low: Average:
Temperature: 83.9 °F 71 °F 75.9 °F
Dew Point: 71.3 °F 65.9 °F 69 °F
Humidity: 91% 57% 80%
Wind Speed: 4mph 0mph 2.1mph
Wind Gust: 7mph - -
Wind- - SW
Pressure: 29.86 in 29.76 in -
Precipitation: 0.00 in    
 
 
Tabular Data for July 25, 2021
Time Temperature Dew Point Pressure Wind Wind Speed Wind Gust Humidity Rainfall Rate (Hourly) solar
00:00 72.1 °F 69.3 °F 29.76 in Calm     91% 0.00 in 0 W/m2
00:05 72.1 °F 69.3 °F 29.76 in Calm     91% 0.00 in 0 W/m2
00:10 72.1 °F 69.3 °F 29.76 in WSW 1 mph 1 mph 91% 0.00 in 0 W/m2
00:15 72.2 °F 69.4 °F 29.76 in East 1 mph 1 mph 91% 0.00 in 0 W/m2
00:20 72.2 °F 69.4 °F 29.76 in Calm     91% 0.00 in 0 W/m2
00:25 72.2 °F 69.4 °F 29.76 in Calm     91% 0.00 in 0 W/m2
00:30 72.3 °F 69.5 °F 29.76 in Calm   1 mph 91% 0.00 in 0 W/m2
00:35 72.3 °F 69.5 °F 29.77 in Calm   1 mph 91% 0.00 in 0 W/m2
00:40 72.3 °F 69.5 °F 29.77 in WSW 1 mph 1 mph 91% 0.00 in 0 W/m2
00:45 72.3 °F 69.5 °F 29.77 in WSW 1 mph 2 mph 91% 0.00 in 0 W/m2
00:50 72.2 °F 69.4 °F 29.77 in SSW 1 mph 1 mph 91% 0.00 in 0 W/m2
00:55 72.3 °F 69.5 °F 29.77 in NE 2 mph 2 mph 91% 0.00 in 0 W/m2
01:00 72.2 °F 69.4 °F 29.77 in South 2 mph 2 mph 91% 0.00 in 0 W/m2
01:05 72.2 °F 69.4 °F 29.77 in WSW 2 mph 2 mph 91% 0.00 in 0 W/m2
01:10 72.2 °F 69.4 °F 29.78 in WSW 2 mph 6 mph 91% 0.00 in 0 W/m2
01:15 72.2 °F 69.4 °F 29.77 in WSW 2 mph 6 mph 91% 0.00 in 0 W/m2
01:20 72.2 °F 69.4 °F 29.77 in SW 1 mph 3 mph 91% 0.00 in 0 W/m2
01:25 72.2 °F 69.4 °F 29.77 in SW 1 mph 3 mph 91% 0.00 in 0 W/m2
01:30 72.2 °F 69.4 °F 29.77 in West 2 mph 2 mph 91% 0.00 in 0 W/m2
01:35 72.2 °F 69.4 °F 29.78 in SSW 2 mph 2 mph 91% 0.00 in 0 W/m2
01:40 72.2 °F 69.4 °F 29.78 in WSW 2 mph 2 mph 91% 0.00 in 0 W/m2
01:45 72.2 °F 69.4 °F 29.78 in WSW 1 mph 2 mph 91% 0.00 in 0 W/m2
01:50 72.2 °F 69.4 °F 29.77 in West 1 mph 2 mph 91% 0.00 in 0 W/m2
01:55 72.1 °F 69.3 °F 29.77 in WSW 2 mph 4 mph 91% 0.00 in 0 W/m2
02:00 72.1 °F 69.3 °F 29.77 in West 2 mph 2 mph 91% 0.00 in 0 W/m2
02:05 72 °F 69.2 °F 29.77 in SW 2 mph 3 mph 91% 0.00 in 0 W/m2
02:10 72 °F 69.2 °F 29.77 in WSW 2 mph 4 mph 91% 0.00 in 0 W/m2
02:15 71.9 °F 69.1 °F 29.78 in WSW 2 mph 4 mph 91% 0.00 in 0 W/m2
02:20 71.9 °F 69.1 °F 29.77 in SW 2 mph 2 mph 91% 0.00 in 0 W/m2
02:25 71.8 °F 69 °F 29.77 in South 2 mph 2 mph 91% 0.00 in 0 W/m2
02:30 71.8 °F 69 °F 29.78 in West 2 mph 4 mph 91% 0.00 in 0 W/m2
02:35 71.8 °F 69 °F 29.77 in SSW 2 mph 4 mph 91% 0.00 in 0 W/m2
02:40 71.8 °F 69 °F 29.77 in West 2 mph 2 mph 91% 0.00 in 0 W/m2
02:45 71.8 °F 69 °F 29.78 in SW 2 mph 2 mph 91% 0.00 in 0 W/m2
02:50 71.9 °F 69.1 °F 29.77 in WSW 2 mph 3 mph 91% 0.00 in 0 W/m2
02:55 72 °F 69.2 °F 29.77 in SW 2 mph 3 mph 91% 0.00 in 0 W/m2
03:00 72 °F 69.2 °F 29.77 in SW 2 mph 2 mph 91% 0.00 in 0 W/m2
03:05 72 °F 69.2 °F 29.77 in SW 2 mph 2 mph 91% 0.00 in 0 W/m2
03:10 72.1 °F 69.3 °F 29.77 in West 2 mph 3 mph 91% 0.00 in 0 W/m2
03:15 72.1 °F 69.3 °F 29.77 in West 2 mph 3 mph 91% 0.00 in 0 W/m2
03:20 72 °F 69.2 °F 29.77 in NNW 3 mph 3 mph 91% 0.00 in 0 W/m2
03:25 72 °F 69.2 °F 29.77 in North 3 mph 3 mph 91% 0.00 in 0 W/m2
03:30 72 °F 69.2 °F 29.77 in WNW 2 mph 3 mph 91% 0.00 in 0 W/m2
03:35 72 °F 69.2 °F 29.77 in WNW 2 mph 3 mph 91% 0.00 in 0 W/m2
03:40 72 °F 69.2 °F 29.77 in West 2 mph 2 mph 91% 0.00 in 0 W/m2
03:45 72 °F 69.2 °F 29.77 in WNW 2 mph 2 mph 91% 0.00 in 0 W/m2
03:50 71.9 °F 69.1 °F 29.77 in WNW 3 mph 3 mph 91% 0.00 in 0 W/m2
03:55 71.9 °F 69.1 °F 29.77 in NW 3 mph 4 mph 91% 0.00 in 0 W/m2
04:00 71.9 °F 68.8 °F 29.77 in WNW 3 mph 5 mph 90% 0.00 in 0 W/m2
04:05 71.9 °F 68.8 °F 29.77 in WNW 3 mph 5 mph 90% 0.00 in 0 W/m2
04:10 71.9 °F 68.8 °F 29.77 in NNW 3 mph 3 mph 90% 0.00 in 0 W/m2
04:15 71.9 °F 68.8 °F 29.77 in West 2 mph 6 mph 90% 0.00 in 0 W/m2
04:20 71.9 °F 68.8 °F 29.77 in South 2 mph 2 mph 90% 0.00 in 0 W/m2
04:25 71.8 °F 68.7 °F 29.77 in WNW 3 mph 3 mph 90% 0.00 in 0 W/m2
04:30 71.8 °F 68.7 °F 29.76 in SW 3 mph 3 mph 90% 0.00 in 0 W/m2
04:35 71.8 °F 68.7 °F 29.76 in East 3 mph 3 mph 90% 0.00 in 0 W/m2
04:40 71.8 °F 68.7 °F 29.76 in West 2 mph 5 mph 90% 0.00 in 0 W/m2
04:45 71.7 °F 68.6 °F 29.77 in WNW 2 mph 5 mph 90% 0.00 in 0 W/m2
04:50 71.7 °F 68.6 °F 29.77 in WSW 2 mph 2 mph 90% 0.00 in 0 W/m2
04:55 71.7 °F 68.6 °F 29.76 in West 3 mph 4 mph 90% 0.00 in 0 W/m2
05:00 71.6 °F 68.5 °F 29.77 in WNW 3 mph 3 mph 90% 0.00 in 0 W/m2
05:05 71.5 °F 68.1 °F 29.76 in NW 3 mph 3 mph 89% 0.00 in 0 W/m2
05:10 71.5 °F 68.1 °F 29.77 in SW 3 mph 3 mph 89% 0.00 in 0 W/m2
05:15 71.5 °F 68.1 °F 29.77 in WNW 2 mph 3 mph 89% 0.00 in 0 W/m2
05:20 71.5 °F 68.1 °F 29.77 in WSW 3 mph 3 mph 89% 0.00 in 0 W/m2
05:25 71.5 °F 68.1 °F 29.77 in WSW 3 mph 3 mph 89% 0.00 in 0 W/m2
05:30 71.4 °F 68 °F 29.77 in North 3 mph 3 mph 89% 0.00 in 0 W/m2
05:35 71.4 °F 68 °F 29.77 in SSE 3 mph 3 mph 89% 0.00 in 0 W/m2
05:40 71.4 °F 68 °F 29.77 in West 3 mph 3 mph 89% 0.00 in 0 W/m2
05:45 71.4 °F 68 °F 29.77 in WNW 3 mph 3 mph 89% 0.00 in 0 W/m2
05:50 71.3 °F 67.9 °F 29.78 in West 2 mph 3 mph 89% 0.00 in 0 W/m2
05:55 71.3 °F 67.9 °F 29.78 in NE 3 mph 3 mph 89% 0.00 in 0 W/m2
06:00 71.3 °F 67.9 °F 29.78 in NW 2 mph 2 mph 89% 0.00 in 0 W/m2
06:05 71.3 °F 68.2 °F 29.78 in SW 2 mph 2 mph 90% 0.00 in 0 W/m2
06:10 71.2 °F 67.8 °F 29.78 in NW 2 mph 2 mph 89% 0.00 in 0 W/m2
06:15 71.2 °F 67.8 °F 29.78 in West 3 mph 4 mph 89% 0.00 in 0 W/m2
06:20 71.2 °F 67.8 °F 29.79 in NW 3 mph 3 mph 89% 0.00 in 5 W/m2
06:25 71.1 °F 68 °F 29.78 in WSW 3 mph 3 mph 90% 0.00 in 9 W/m2
06:30 71.1 °F 68 °F 29.79 in SSW 2 mph 2 mph 90% 0.00 in 11 W/m2
06:35 71 °F 67.9 °F 29.78 in South 2 mph 2 mph 90% 0.00 in 14 W/m2
06:40 71 °F 67.9 °F 29.79 in West 2 mph 2 mph 90% 0.00 in 16 W/m2
06:45 71 °F 67.9 °F 29.79 in SSW 2 mph 2 mph 90% 0.00 in 21 W/m2
06:50 71 °F 67.9 °F 29.79 in WSW 3 mph 3 mph 90% 0.00 in 25 W/m2
06:55 71 °F 67.9 °F 29.79 in South 2 mph 3 mph 90% 0.00 in 30 W/m2
07:00 71 °F 67.9 °F 29.79 in West 2 mph 3 mph 90% 0.00 in 33 W/m2
07:05 71 °F 67.9 °F 29.79 in WNW 2 mph 3 mph 90% 0.00 in 33 W/m2
07:10 71 °F 67.9 °F 29.80 in South 2 mph 2 mph 90% 0.00 in 39 W/m2
07:15 71 °F 67.9 °F 29.80 in SW 2 mph 2 mph 90% 0.00 in 44 W/m2
07:20 71.1 °F 68.3 °F 29.80 in WSW 2 mph 2 mph 91% 0.00 in 49 W/m2
07:25 71.2 °F 68.4 °F 29.80 in WSW 2 mph 5 mph 91% 0.00 in 46 W/m2
07:30 71.2 °F 68.4 °F 29.80 in NW 3 mph 3 mph 91% 0.00 in 49 W/m2
07:35 71.2 °F 68.4 °F 29.80 in WNW 3 mph 3 mph 91% 0.00 in 53 W/m2
07:40 71.2 °F 68.4 °F 29.80 in SW 2 mph 2 mph 91% 0.00 in 54 W/m2
07:45 71.2 °F 68.4 °F 29.80 in North 2 mph 2 mph 91% 0.00 in 56 W/m2
07:50 71.3 °F 68.5 °F 29.80 in SW 2 mph 2 mph 91% 0.00 in 60 W/m2
07:55 71.3 °F 68.5 °F 29.80 in SW 2 mph 2 mph 91% 0.00 in 62 W/m2
08:00 71.5 °F 68.7 °F 29.81 in SW 2 mph 2 mph 91% 0.00 in 63 W/m2
08:05 71.6 °F 68.8 °F 29.81 in SW 2 mph 2 mph 91% 0.00 in 63 W/m2
08:10 71.7 °F 68.9 °F 29.81 in SSW 2 mph 2 mph 91% 0.00 in 69 W/m2
08:15 71.8 °F 69 °F 29.81 in SW 2 mph 2 mph 91% 0.00 in 130 W/m2
08:20 71.8 °F 68.7 °F 29.81 in WSW 2 mph 4 mph 90% 0.00 in 218 W/m2
08:25 71.9 °F 68.8 °F 29.81 in WSW 2 mph 4 mph 90% 0.00 in 232 W/m2
08:30 72 °F 68.9 °F 29.82 in SSW 3 mph 3 mph 90% 0.00 in 251 W/m2
08:35 72.1 °F 69 °F 29.81 in SE 3 mph 3 mph 90% 0.00 in 267 W/m2
08:40 72.2 °F 69.1 °F 29.81 in SSW 2 mph 3 mph 90% 0.00 in 287 W/m2
08:45 72.2 °F 69.1 °F 29.81 in South 3 mph 3 mph 90% 0.00 in 304 W/m2
08:50 72.4 °F 69.3 °F 29.81 in SSE 2 mph 3 mph 90% 0.00 in 323 W/m2
08:55 72.4 °F 69 °F 29.82 in SSW 3 mph 3 mph 89% 0.00 in 338 W/m2
09:00 72.5 °F 69.1 °F 29.81 in West 3 mph 4 mph 89% 0.00 in 352 W/m2
09:05 72.5 °F 69.1 °F 29.81 in South 3 mph 6 mph 89% 0.00 in 366 W/m2
09:10 72.5 °F 69.1 °F 29.81 in South 3 mph 4 mph 89% 0.00 in 383 W/m2
09:15 72.6 °F 69.2 °F 29.81 in South 3 mph 4 mph 89% 0.00 in 397 W/m2
09:20 72.7 °F 69.3 °F 29.81 in SW 3 mph 3 mph 89% 0.00 in 413 W/m2
09:25 72.8 °F 69.4 °F 29.81 in WNW 3 mph 3 mph 89% 0.00 in 425 W/m2
09:30 72.7 °F 68.9 °F 29.81 in SW 3 mph 5 mph 88% 0.00 in 438 W/m2
09:35 72.7 °F 68.9 °F 29.81 in South 3 mph 5 mph 88% 0.00 in 452 W/m2
09:40 72.7 °F 68.9 °F 29.82 in South 4 mph 5 mph 88% 0.00 in 466 W/m2
09:45 72.9 °F 69.5 °F 29.82 in WSW 3 mph 5 mph 89% 0.00 in 478 W/m2
09:50 73 °F 69.2 °F 29.81 in SE 3 mph 3 mph 88% 0.00 in 490 W/m2
09:55 73 °F 69.2 °F 29.81 in SW 3 mph 6 mph 88% 0.00 in 506 W/m2
10:00 73.1 °F 69.3 °F 29.81 in South 3 mph 6 mph 88% 0.00 in 520 W/m2
10:05 73.2 °F 69.4 °F 29.82 in SSW 3 mph 6 mph 88% 0.00 in 531 W/m2
10:10 73.3 °F 69.5 °F 29.82 in SW 3 mph 3 mph 88% 0.00 in 541 W/m2
10:15 73.3 °F 69.5 °F 29.82 in WSW 3 mph 3 mph 88% 0.00 in 555 W/m2
10:20 73.4 °F 69.6 °F 29.81 in SSW 3 mph 3 mph 88% 0.00 in 566 W/m2
10:25 73.5 °F 69.4 °F 29.82 in WNW 3 mph 3 mph 87% 0.00 in 578 W/m2
10:30 73.7 °F 69.6 °F 29.81 in SW 3 mph 3 mph 87% 0.00 in 591 W/m2
10:35 73.7 °F 69.2 °F 29.81 in South 3 mph 4 mph 86% 0.00 in 599 W/m2
10:40 73.7 °F 69.6 °F 29.81 in SE 3 mph 3 mph 87% 0.00 in 613 W/m2
10:45 73.8 °F 69.3 °F 29.81 in SW 3 mph 3 mph 86% 0.00 in 622 W/m2
10:50 74 °F 69.5 °F 29.81 in WSW 3 mph 3 mph 86% 0.00 in 635 W/m2
10:55 74.1 °F 69.3 °F 29.81 in SSW 3 mph 3 mph 85% 0.00 in 649 W/m2
11:00 74.2 °F 69.4 °F 29.81 in SSE 3 mph 4 mph 85% 0.00 in 657 W/m2
11:05 74.4 °F 69.6 °F 29.81 in SW 3 mph 5 mph 85% 0.00 in 666 W/m2
11:10 74.5 °F 69.3 °F 29.81 in WNW 3 mph 3 mph 84% 0.00 in 679 W/m2
11:15 74.7 °F 69.2 °F 29.82 in South 3 mph 4 mph 83% 0.00 in 687 W/m2
11:20 74.8 °F 69.6 °F 29.82 in South 3 mph 3 mph 84% 0.00 in 696 W/m2
11:25 74.9 °F 69.4 °F 29.82 in SE 3 mph 3 mph 83% 0.00 in 705 W/m2
11:30 75.2 °F 69.7 °F 29.82 in WNW 4 mph 6 mph 83% 0.00 in 715 W/m2
11:35 75.3 °F 70.1 °F 29.82 in SSW 4 mph 6 mph 84% 0.00 in 724 W/m2
11:40 75.4 °F 70.2 °F 29.82 in SSW 4 mph 4 mph 84% 0.00 in 729 W/m2
11:45 75.5 °F 70 °F 29.82 in South 4 mph 6 mph 83% 0.00 in 738 W/m2
11:50 75.6 °F 70.1 °F 29.82 in West 4 mph 4 mph 83% 0.00 in 747 W/m2
11:55 75.7 °F 69.8 °F 29.82 in SSW 3 mph 4 mph 82% 0.00 in 758 W/m2
12:00 75.8 °F 69.6 °F 29.82 in NE 3 mph 3 mph 81% 0.00 in 765 W/m2
12:05 76 °F 69.7 °F 29.82 in WSW 3 mph 3 mph 81% 0.00 in 773 W/m2
12:10 76.2 °F 69.9 °F 29.82 in SW 3 mph 5 mph 81% 0.00 in 780 W/m2
12:15 76.4 °F 70.1 °F 29.82 in SSW 3 mph 5 mph 81% 0.00 in 786 W/m2
12:20 76.5 °F 70.2 °F 29.82 in SSW 3 mph 3 mph 81% 0.00 in 791 W/m2
12:25 76.6 °F 70.3 °F 29.82 in West 4 mph 5 mph 81% 0.00 in 796 W/m2
12:30 76.9 °F 70.6 °F 29.82 in SW 4 mph 6 mph 81% 0.00 in 802 W/m2
12:35 77 °F 70.4 °F 29.82 in South 3 mph 6 mph 80% 0.00 in 805 W/m2
12:40 77.1 °F 70.5 °F 29.82 in SSE 3 mph 3 mph 80% 0.00 in 810 W/m2
12:45 77.3 °F 69.9 °F 29.83 in SSW 3 mph 6 mph 78% 0.00 in 816 W/m2
12:50 77.6 °F 69.8 °F 29.82 in SW 3 mph 3 mph 77% 0.00 in 821 W/m2
12:55 77.5 °F 69.7 °F 29.82 in West 3 mph 3 mph 77% 0.00 in 824 W/m2
13:00 77.8 °F 69.6 °F 29.82 in SSW 3 mph 3 mph 76% 0.00 in 830 W/m2
13:05 78.2 °F 69.6 °F 29.82 in SSW 3 mph 5 mph 75% 0.00 in 833 W/m2
13:10 78.5 °F 69.9 °F 29.82 in South 3 mph 3 mph 75% 0.00 in 837 W/m2
13:15 78.5 °F 70.3 °F 29.82 in SW 3 mph 4 mph 76% 0.00 in 840 W/m2
13:20 78.6 °F 69.6 °F 29.82 in SW 3 mph 3 mph 74% 0.00 in 842 W/m2
13:25 79 °F 70 °F 29.82 in WSW 3 mph 3 mph 74% 0.00 in 844 W/m2
13:30 79.2 °F 69.8 °F 29.82 in West 3 mph 3 mph 73% 0.00 in 844 W/m2
13:35 79.2 °F 69.8 °F 29.82 in SW 3 mph 3 mph 73% 0.00 in 846 W/m2
13:40 78.9 °F 69.5 °F 29.82 in WSW 3 mph 3 mph 73% 0.00 in 846 W/m2
13:45 78.9 °F 69.1 °F 29.82 in SW 3 mph 3 mph 72% 0.00 in 846 W/m2
13:50 78.9 °F 69.5 °F 29.82 in South 3 mph 3 mph 73% 0.00 in 849 W/m2
13:55 79 °F 69.6 °F 29.82 in WSW 3 mph 3 mph 73% 0.00 in 847 W/m2
14:00 79.1 °F 69.3 °F 29.82 in SSW 3 mph 4 mph 72% 0.00 in 847 W/m2
14:05 79.1 °F 69.7 °F 29.82 in South 3 mph 4 mph 73% 0.00 in 846 W/m2
14:10 79.1 °F 69.7 °F 29.82 in SSW 2 mph 2 mph 73% 0.00 in 846 W/m2
14:15 79.2 °F 70.2 °F 29.82 in SW 2 mph 5 mph 74% 0.00 in 844 W/m2
14:20 79.3 °F 69.5 °F 29.82 in South 2 mph 3 mph 72% 0.00 in 840 W/m2
14:25 79.3 °F 69.5 °F 29.82 in SW 2 mph 3 mph 72% 0.00 in 838 W/m2
14:30 79.4 °F 70 °F 29.83 in WNW 2 mph 2 mph 73% 0.00 in 837 W/m2
14:35 79.6 °F 69 °F 29.83 in South 2 mph 2 mph 70% 0.00 in 831 W/m2
14:40 80.3 °F 69.6 °F 29.83 in North 3 mph 3 mph 70% 0.00 in 831 W/m2
14:45 80.3 °F 70 °F 29.82 in SSW 3 mph 3 mph 71% 0.00 in 824 W/m2
14:50 80.2 °F 70.4 °F 29.82 in WSW 2 mph 2 mph 72% 0.00 in 821 W/m2
14:55 80.6 °F 70.7 °F 29.82 in South 3 mph 3 mph 72% 0.00 in 816 W/m2
15:00 80.6 °F 70.7 °F 29.83 in SSW 3 mph 4 mph 72% 0.00 in 810 W/m2
15:05 80.6 °F 71.1 °F 29.83 in SSW 3 mph 4 mph 73% 0.00 in 805 W/m2
15:10 80.4 °F 71.3 °F 29.83 in SW 3 mph 7 mph 74% 0.00 in 798 W/m2
15:15 80.6 °F 71.1 °F 29.82 in WNW 3 mph 7 mph 73% 0.00 in 789 W/m2
15:20 80.7 °F 70.4 °F 29.83 in SSW 3 mph 4 mph 71% 0.00 in 784 W/m2
15:25 80.9 °F 69.8 °F 29.83 in WSW 3 mph 4 mph 69% 0.00 in 777 W/m2
15:30 81.3 °F 70.2 °F 29.83 in WNW 3 mph 4 mph 69% 0.00 in 770 W/m2
15:35 81.2 °F 67.9 °F 29.83 in SW 3 mph 4 mph 64% 0.00 in 759 W/m2
15:40 82.1 °F 66.4 °F 29.83 in SW 4 mph 4 mph 59% 0.00 in 754 W/m2
15:45 83.1 °F 66.8 °F 29.83 in WSW 4 mph 7 mph 58% 0.00 in 747 W/m2
15:50 83.8 °F 67.9 °F 29.83 in SSW 4 mph 4 mph 59% 0.00 in 738 W/m2
15:55 83.9 °F 67 °F 29.82 in WNW 3 mph 4 mph 57% 0.00 in 733 W/m2
16:00 83.7 °F 67.8 °F 29.82 in WNW 3 mph 4 mph 59% 0.00 in 724 W/m2
16:05 83.2 °F 68.8 °F 29.82 in NNW 3 mph 4 mph 62% 0.00 in 715 W/m2
16:10 82.5 °F 69.5 °F 29.82 in WSW 2 mph 2 mph 65% 0.00 in 708 W/m2
16:15 82.1 °F 68.7 °F 29.82 in SSW 2 mph 2 mph 64% 0.00 in 703 W/m2
16:20 81.8 °F 70.2 °F 29.82 in SW 2 mph 2 mph 68% 0.00 in 691 W/m2
16:25 81.3 °F 70.6 °F 29.82 in South 2 mph 2 mph 70% 0.00 in 679 W/m2
16:30 81.3 °F 70.2 °F 29.82 in South 3 mph 3 mph 69% 0.00 in 668 W/m2
16:35 81.5 °F 69 °F 29.82 in SSW 3 mph 3 mph 66% 0.00 in 657 W/m2
16:40 81.8 °F 70.2 °F 29.82 in SE 2 mph 2 mph 68% 0.00 in 649 W/m2
16:45 82.1 °F 70.9 °F 29.82 in South 2 mph 3 mph 69% 0.00 in 633 W/m2
16:50 82.2 °F 70.1 °F 29.82 in South 2 mph 3 mph 67% 0.00 in 621 W/m2
16:55 82 °F 69.5 °F 29.82 in SSE 2 mph 3 mph 66% 0.00 in 615 W/m2
17:00 82.2 °F 69.7 °F 29.82 in SSW 2 mph 2 mph 66% 0.00 in 601 W/m2
17:05 82.4 °F 69.9 °F 29.82 in SW 2 mph 3 mph 66% 0.00 in 589 W/m2
17:10 82.2 °F 70.1 °F 29.82 in SSE 2 mph 2 mph 67% 0.00 in 575 W/m2
17:15 81.6 °F 70.4 °F 29.82 in SSW 2 mph 3 mph 69% 0.00 in 570 W/m2
17:20 81.8 °F 70.6 °F 29.81 in SSW 3 mph 3 mph 69% 0.00 in 552 W/m2
17:25 82.1 °F 68.7 °F 29.82 in SSE 3 mph 3 mph 64% 0.00 in 540 W/m2
17:30 82.1 °F 70.1 °F 29.81 in SW 2 mph 2 mph 67% 0.00 in 522 W/m2
17:35 82.3 °F 71.1 °F 29.81 in South 3 mph 3 mph 69% 0.00 in 513 W/m2
17:40 82.3 °F 69.8 °F 29.81 in South 3 mph 5 mph 66% 0.00 in 494 W/m2
17:45 82.4 °F 70.8 °F 29.81 in South 3 mph 5 mph 68% 0.00 in 482 W/m2
17:50 82.4 °F 70.3 °F 29.81 in WSW 3 mph 3 mph 67% 0.00 in 461 W/m2
17:55 82.4 °F 71.2 °F 29.81 in SW 3 mph 3 mph 69% 0.00 in 454 W/m2
18:00 82.4 °F 71.2 °F 29.81 in North 3 mph 3 mph 69% 0.00 in 448 W/m2
18:05 82.3 °F 71.1 °F 29.81 in SSW 2 mph 3 mph 69% 0.00 in 431 W/m2
18:10 82.2 °F 70.1 °F 29.81 in SW 2 mph 3 mph 67% 0.00 in 417 W/m2
18:15 82.1 °F 70.5 °F 29.81 in South 2 mph 3 mph 68% 0.00 in 399 W/m2
18:20 82.1 °F 70.1 °F 29.80 in ESE 2 mph 2 mph 67% 0.00 in 390 W/m2
18:25 82.1 °F 70.1 °F 29.81 in SSW 2 mph 3 mph 67% 0.00 in 371 W/m2
18:30 82.1 °F 70.9 °F 29.80 in West 2 mph 2 mph 69% 0.00 in 357 W/m2
18:35 82.1 °F 70.9 °F 29.80 in SW 2 mph 3 mph 69% 0.00 in 345 W/m2
18:40 82 °F 70.4 °F 29.80 in SSW 2 mph 3 mph 68% 0.00 in 329 W/m2
18:45 82 °F 70.4 °F 29.80 in South 2 mph 3 mph 68% 0.00 in 313 W/m2
18:50 82 °F 70.4 °F 29.80 in South 2 mph 2 mph 68% 0.00 in 301 W/m2
18:55 81.9 °F 69.4 °F 29.80 in SSW 2 mph 2 mph 66% 0.00 in 287 W/m2
19:00 81.8 °F 68 °F 29.80 in SW 2 mph 2 mph 63% 0.00 in 272 W/m2
19:05 81.7 °F 68.8 °F 29.80 in SW 2 mph 2 mph 65% 0.00 in 258 W/m2
19:10 81.6 °F 68.7 °F 29.80 in South 2 mph 2 mph 65% 0.00 in 243 W/m2
19:15 81.6 °F 69.1 °F 29.80 in SW 1 mph 2 mph 66% 0.00 in 229 W/m2
19:20 81.6 °F 69.6 °F 29.80 in SSE 1 mph 2 mph 67% 0.00 in 216 W/m2
19:25 81.5 °F 69.5 °F 29.80 in SW 1 mph 2 mph 67% 0.00 in 202 W/m2
19:30 81.5 °F 70.3 °F 29.80 in East 1 mph 1 mph 69% 0.00 in 186 W/m2
19:35 81.4 °F 69.8 °F 29.80 in SSW 1 mph 1 mph 68% 0.00 in 107 W/m2
19:40 81.3 °F 70.2 °F 29.80 in South 1 mph 3 mph 69% 0.00 in 155 W/m2
19:45 81.2 °F 70.1 °F 29.80 in ESE 1 mph 3 mph 69% 0.00 in 81 W/m2
19:50 81.1 °F 70 °F 29.81 in South 1 mph 1 mph 69% 0.00 in 63 W/m2
19:55 81 °F 69.4 °F 29.81 in South 1 mph 2 mph 68% 0.00 in 70 W/m2
20:00 80.8 °F 69.2 °F 29.81 in SSE 1 mph 2 mph 68% 0.00 in 69 W/m2
20:05 80.7 °F 69.2 °F 29.81 in SSW 1 mph 2 mph 68% 0.00 in 53 W/m2
20:10 80.6 °F 69.9 °F 29.81 in SW 1 mph 1 mph 70% 0.00 in 81 W/m2
20:15 80.6 °F 69.9 °F 29.81 in SW 1 mph 1 mph 70% 0.00 in 72 W/m2
20:20 80.4 °F 69.7 °F 29.81 in SSW 1 mph 1 mph 70% 0.00 in 51 W/m2
20:25 80.3 °F 69.6 °F 29.81 in East 1 mph 1 mph 70% 0.00 in 35 W/m2
20:30 80.2 °F 69.5 °F 29.81 in WSW 1 mph 1 mph 70% 0.00 in 30 W/m2
20:35 80 °F 68.9 °F 29.81 in NE 1 mph 1 mph 69% 0.00 in 26 W/m2
20:40 79.8 °F 68.3 °F 29.81 in Calm   1 mph 68% 0.00 in 23 W/m2
20:45 79.7 °F 67.8 °F 29.81 in Calm   1 mph 67% 0.00 in 18 W/m2
20:50 79.5 °F 67.6 °F 29.81 in Calm     67% 0.00 in 14 W/m2
20:55 79.3 °F 67.4 °F 29.81 in Calm     67% 0.00 in 11 W/m2
21:00 79.1 °F 67.2 °F 29.81 in Calm     67% 0.00 in 7 W/m2
21:05 78.9 °F 67 °F 29.81 in Calm     67% 0.00 in 5 W/m2
21:10 78.7 °F 66.8 °F 29.81 in Calm   1 mph 67% 0.00 in 0 W/m2
21:15 78.6 °F 66.3 °F 29.81 in Calm   1 mph 66% 0.00 in 0 W/m2
21:20 78.4 °F 66.1 °F 29.82 in WSW 1 mph 1 mph 66% 0.00 in 0 W/m2
21:25 78.2 °F 65.9 °F 29.82 in NNW 1 mph 1 mph 66% 0.00 in 0 W/m2
21:30 78 °F 66.2 °F 29.82 in North 1 mph 1 mph 67% 0.00 in 0 W/m2
21:35 77.9 °F 66.1 °F 29.82 in Calm   1 mph 67% 0.00 in 0 W/m2
21:40 77.7 °F 66.3 °F 29.82 in Calm   1 mph 68% 0.00 in 0 W/m2
21:45 77.6 °F 66.6 °F 29.82 in WNW 1 mph 1 mph 69% 0.00 in 0 W/m2
21:50 77.5 °F 66.9 °F 29.83 in SSW 1 mph 1 mph 70% 0.00 in 0 W/m2
21:55 77.4 °F 66.8 °F 29.83 in Calm   1 mph 70% 0.00 in 0 W/m2
22:00 77.3 °F 67.2 °F 29.83 in WNW 1 mph 1 mph 71% 0.00 in 0 W/m2
22:05 77.2 °F 67.1 °F 29.83 in WNW 1 mph 1 mph 71% 0.00 in 0 W/m2
22:10 77 °F 66.9 °F 29.83 in Calm     71% 0.00 in 0 W/m2
22:15 76.9 °F 67.2 °F 29.83 in Calm     72% 0.00 in 0 W/m2
22:20 76.8 °F 67.1 °F 29.83 in Calm   1 mph 72% 0.00 in 0 W/m2
22:25 76.7 °F 67.4 °F 29.84 in Calm   1 mph 73% 0.00 in 0 W/m2
22:30 76.5 °F 67.2 °F 29.84 in WNW 1 mph 1 mph 73% 0.00 in 0 W/m2
22:35 76.4 °F 67.5 °F 29.84 in NNW 1 mph 1 mph 74% 0.00 in 0 W/m2
22:40 76.2 °F 67.3 °F 29.84 in NW 1 mph 2 mph 74% 0.00 in 0 W/m2
22:45 76.1 °F 67.2 °F 29.84 in NNW 1 mph 2 mph 74% 0.00 in 0 W/m2
22:50 76 °F 67.1 °F 29.84 in North 1 mph 1 mph 74% 0.00 in 0 W/m2
22:55 75.7 °F 66.8 °F 29.84 in North 1 mph 1 mph 74% 0.00 in 0 W/m2
23:00 75.6 °F 66.7 °F 29.84 in NNW 1 mph 1 mph 74% 0.00 in 0 W/m2
23:05 75.5 °F 67 °F 29.85 in Calm   1 mph 75% 0.00 in 0 W/m2
23:10 75.4 °F 67.3 °F 29.85 in Calm     76% 0.00 in 0 W/m2
23:15 75.2 °F 67.1 °F 29.85 in NW 1 mph 1 mph 76% 0.00 in 0 W/m2
23:20 75.1 °F 67.4 °F 29.85 in Calm     77% 0.00 in 0 W/m2
23:25 75 °F 67.3 °F 29.85 in Calm     77% 0.00 in 0 W/m2
23:30 74.8 °F 67.1 °F 29.85 in Calm   1 mph 77% 0.00 in 0 W/m2
23:35 74.7 °F 67.4 °F 29.85 in Calm   2 mph 78% 0.00 in 0 W/m2
23:40 74.6 °F 67.3 °F 29.85 in Calm     78% 0.00 in 0 W/m2
23:45 74.4 °F 67.1 °F 29.85 in Calm   1 mph 78% 0.00 in 0 W/m2
23:50 74.3 °F 66.6 °F 29.86 in Calm     77% 0.00 in 0 W/m2
23:55 74.1 °F 66.4 °F 29.86 in Calm     77% 0.00 in 0 W/m2
Sand Point, Michigan, USA
Compliments of Weather Underground - 2 mb